Tracking 30995 objects as of 5-Jul-2025
HD Live streaming from Space Station
objects crossing your sky now

SES 22

Track SES 22 now!


NORAD ID: 52933
Int'l Code: 2022-071A
Perigee: 35,788.3 km
Apogee: 35,798.1 km
Inclination: 0.0 °
Period: 1,436.1 minutes
Semi major axis: 42164 km
RCS: Unknown
Launch date: June 29, 2022
Source: SOCIETE EUROPEENNE DES SATELLITES (SES)
Launch site: AIR FORCE EASTERN TEST RANGE (AFETR)
Your satellite tracking list
Your tracking list is empty




NASA's NSSDC Master Catalog

Two Line Element Set (TLE):
1 52933U 22071A   25186.51017124  .00000120  00000-0  00000-0 0  9990
2 52933   0.0193  63.8167 0001155  32.8460 231.7387  1.00273678  4046
Source of the keplerian elements: AFSPC